Find Starlink 3589

NORAD ID: 51997 Int'l Des: 2022-025 Owner: SPXS Country: US Constellation: starlink operational
LEOCIRCULAR

Current View

Loading 3D Globe...

About Starlink 3589

Description loading...

Upcoming Passes

Passes for default location (London). Set your location on the main map for personalized predictions.

Altitude History

Loading altitude history...

Two-Line Element Set

1 51997U 22025AT 26150.87629408 -.00000647 00000-0 -22588-4 0 9998
2 51997 53.1963 10.1603 0001098 91.0475 269.0643 15.08838254233311
Epoch: May 30, 2026 • Age: 14 hours

Current Status

Altitude 558.7 km
Velocity 7.58 km/s
Sub-Earth Point -52.44°S, 121.53°W
Launch Date Mar 9, 2022
Age 4.2 years
Type internet

Technical Details

Classification Payload
Mass 297.00 kg
Dry Mass 275.00 kg
Total Mass 297.00 kg
Length 0.20 m
Diameter 2.80 m
Span 9.00 m
Shape Box + pan
Manufacturer SPXS
Bus Type Starlink
Phase Status In Orbit
Owner/State SPXS/US

Most Searched